Time,TemperatureF,DewpointF,PressureIn,WindDirection,WindDirectionDegrees,WindSpeedMPH,WindSpeedGustMPH,Humidity,HourlyPrecipIn,Conditions,Clouds,dailyrainin,SoftwareType,DateUTC
2013-01-18 00:01:00,36.5,28.7,30.50,SW,225,6.0,-999.0,73,0.00,,,0.00,Wunderground v.1.15,2013-01-18 06:01:00,
2013-01-18 00:06:00,36.5,28.7,30.50,SW,225,6.0,-999.0,73,0.00,,,0.00,Wunderground v.1.15,2013-01-18 06:06:00,
2013-01-18 00:11:00,36.5,28.7,30.50,SW,225,6.0,-999.0,73,0.00,,,0.00,Wunderground v.1.15,2013-01-18 06:11:00,
2013-01-18 00:16:00,36.5,28.7,30.50,SW,225,6.0,-999.0,73,0.00,,,0.00,Wunderground v.1.15,2013-01-18 06:16:00,
2013-01-18 00:21:00,36.5,28.7,30.50,SW,225,6.0,-999.0,73,0.00,,,0.00,Wunderground v.1.15,2013-01-18 06:21:00,
2013-01-18 00:26:00,36.9,29.1,30.50,SW,225,8.0,-999.0,73,0.00,,,0.00,Wunderground v.1.15,2013-01-18 06:26:00,
2013-01-18 00:31:00,36.9,29.1,30.50,SW,225,8.0,-999.0,73,0.00,,,0.00,Wunderground v.1.15,2013-01-18 06:31:00,
2013-01-18 00:36:00,36.9,29.1,30.50,SW,225,8.0,-999.0,73,0.00,,,0.00,Wunderground v.1.15,2013-01-18 06:36:00,
2013-01-18 00:41:00,36.1,28.6,30.50,SW,225,6.0,-999.0,74,0.00,,,0.00,Wunderground v.1.15,2013-01-18 06:41:00,
2013-01-18 00:46:00,36.1,28.6,30.50,SW,225,6.0,-999.0,74,0.00,,,0.00,Wunderground v.1.15,2013-01-18 06:46:00,
2013-01-18 00:51:00,36.1,28.6,30.50,SW,225,6.0,-999.0,74,0.00,,,0.00,Wunderground v.1.15,2013-01-18 06:51:00,
2013-01-18 00:56:00,35.6,28.5,30.50,SW,225,6.0,-999.0,75,0.00,,,0.00,Wunderground v.1.15,2013-01-18 06:56:00,
2013-01-18 01:01:00,35.6,28.5,30.50,SW,225,6.0,-999.0,75,0.00,,,0.00,Wunderground v.1.15,2013-01-18 07:01:00,
2013-01-18 01:06:00,35.6,28.5,30.50,SW,225,6.0,-999.0,75,0.00,,,0.00,Wunderground v.1.15,2013-01-18 07:06:00,
2013-01-18 01:11:00,35.6,28.8,30.50,SW,225,7.0,-999.0,76,0.00,,,0.00,Wunderground v.1.15,2013-01-18 07:11:00,
2013-01-18 01:16:00,35.6,28.8,30.50,SW,225,7.0,-999.0,76,0.00,,,0.00,Wunderground v.1.15,2013-01-18 07:16:00,
2013-01-18 01:21:00,35.6,28.8,30.50,SW,225,7.0,-999.0,76,0.00,,,0.00,Wunderground v.1.15,2013-01-18 07:21:00,
2013-01-18 01:26:00,35.6,28.8,30.50,SSW,203,7.0,-999.0,76,0.00,,,0.00,Wunderground v.1.15,2013-01-18 07:26:00,
2013-01-18 01:31:00,35.6,28.8,30.50,SSW,203,7.0,-999.0,76,0.00,,,0.00,Wunderground v.1.15,2013-01-18 07:31:00,
2013-01-18 01:36:00,35.6,28.8,30.50,SSW,203,7.0,-999.0,76,0.00,,,0.00,Wunderground v.1.15,2013-01-18 07:36:00,
2013-01-18 01:41:00,35.2,28.4,30.49,SSW,203,6.0,-999.0,76,0.00,,,0.00,Wunderground v.1.15,2013-01-18 07:41:00,
2013-01-18 01:46:00,35.2,28.4,30.49,SSW,203,6.0,-999.0,76,0.00,,,0.00,Wunderground v.1.15,2013-01-18 07:46:00,
2013-01-18 01:51:00,35.2,28.4,30.49,SSW,203,6.0,-999.0,76,0.00,,,0.00,Wunderground v.1.15,2013-01-18 07:51:00,
2013-01-18 01:56:00,34.8,28.3,30.49,SSW,203,5.0,-999.0,77,0.00,,,0.00,Wunderground v.1.15,2013-01-18 07:56:00,
2013-01-18 02:01:00,34.8,28.3,30.49,SSW,203,5.0,-999.0,77,0.00,,,0.00,Wunderground v.1.15,2013-01-18 08:01:00,
2013-01-18 02:06:00,34.8,28.3,30.49,SSW,203,5.0,-999.0,77,0.00,,,0.00,Wunderground v.1.15,2013-01-18 08:06:00,
2013-01-18 02:11:00,35.3,28.8,30.49,SSW,203,7.0,-999.0,77,0.00,,,0.00,Wunderground v.1.15,2013-01-18 08:11:00,
2013-01-18 02:16:00,35.3,28.8,30.49,SSW,203,7.0,-999.0,77,0.00,,,0.00,Wunderground v.1.15,2013-01-18 08:16:00,
2013-01-18 02:21:00,35.3,28.8,30.49,SSW,203,7.0,-999.0,77,0.00,,,0.00,Wunderground v.1.15,2013-01-18 08:21:00,
2013-01-18 02:26:00,35.8,29.0,30.48,SW,225,9.0,-999.0,76,0.00,,,0.00,Wunderground v.1.15,2013-01-18 08:26:00,
2013-01-18 02:31:00,35.8,29.0,30.48,SW,225,9.0,-999.0,76,0.00,,,0.00,Wunderground v.1.15,2013-01-18 08:31:00,
2013-01-18 02:36:00,35.8,29.0,30.48,SW,225,9.0,-999.0,76,0.00,,,0.00,Wunderground v.1.15,2013-01-18 08:36:00,
2013-01-18 02:41:00,36.1,28.9,30.48,SSW,203,10.0,-999.0,75,0.00,,,0.00,Wunderground v.1.15,2013-01-18 08:41:00,
2013-01-18 02:46:00,36.1,28.9,30.48,SSW,203,10.0,-999.0,75,0.00,,,0.00,Wunderground v.1.15,2013-01-18 08:46:00,
2013-01-18 02:51:00,36.1,28.9,30.48,SSW,203,10.0,-999.0,75,0.00,,,0.00,Wunderground v.1.15,2013-01-18 08:51:00,
2013-01-18 02:56:00,35.5,28.7,30.48,SW,225,9.0,-999.0,76,0.00,,,0.00,Wunderground v.1.15,2013-01-18 08:56:00,
2013-01-18 03:01:00,35.5,28.7,30.48,SW,225,9.0,-999.0,76,0.00,,,0.00,Wunderground v.1.15,2013-01-18 09:01:00,
2013-01-18 03:06:00,35.5,28.7,30.48,SW,225,9.0,-999.0,76,0.00,,,0.00,Wunderground v.1.15,2013-01-18 09:06:00,
2013-01-18 03:11:00,34.9,28.4,30.47,SSW,203,9.0,-999.0,77,0.00,,,0.00,Wunderground v.1.15,2013-01-18 09:11:00,
2013-01-18 03:16:00,34.9,28.4,30.47,SSW,203,9.0,-999.0,77,0.00,,,0.00,Wunderground v.1.15,2013-01-18 09:16:00,
2013-01-18 03:21:00,34.9,28.4,30.47,SSW,203,9.0,-999.0,77,0.00,,,0.00,Wunderground v.1.15,2013-01-18 09:21:00,
2013-01-18 03:26:00,34.9,28.7,30.47,SSW,203,8.0,-999.0,78,0.00,,,0.00,Wunderground v.1.15,2013-01-18 09:26:00,
2013-01-18 03:31:00,34.9,28.7,30.47,SSW,203,8.0,-999.0,78,0.00,,,0.00,Wunderground v.1.15,2013-01-18 09:31:00,
2013-01-18 03:36:00,34.9,28.7,30.47,SSW,203,8.0,-999.0,78,0.00,,,0.00,Wunderground v.1.15,2013-01-18 09:36:00,
2013-01-18 03:41:00,35.5,29.0,30.46,SSW,203,10.0,-999.0,77,0.00,,,0.00,Wunderground v.1.15,2013-01-18 09:41:00,
2013-01-18 03:46:00,35.5,29.0,30.46,SSW,203,10.0,-999.0,77,0.00,,,0.00,Wunderground v.1.15,2013-01-18 09:46:00,
2013-01-18 03:51:00,35.5,29.0,30.46,SSW,203,10.0,-999.0,77,0.00,,,0.00,Wunderground v.1.15,2013-01-18 09:51:00,
2013-01-18 03:56:00,35.1,28.6,30.45,SSW,203,10.0,-999.0,77,0.00,,,0.00,Wunderground v.1.15,2013-01-18 09:56:00,
2013-01-18 04:01:00,35.1,28.6,30.45,SSW,203,10.0,-999.0,77,0.00,,,0.00,Wunderground v.1.15,2013-01-18 10:01:00,
2013-01-18 04:06:00,35.1,28.6,30.45,SSW,203,10.0,-999.0,77,0.00,,,0.00,Wunderground v.1.15,2013-01-18 10:06:00,
2013-01-18 04:11:00,34.0,27.9,30.44,SSW,203,9.0,-999.0,78,0.00,,,0.00,Wunderground v.1.15,2013-01-18 10:11:00,
2013-01-18 04:16:00,34.0,27.9,30.44,SSW,203,9.0,-999.0,78,0.00,,,0.00,Wunderground v.1.15,2013-01-18 10:16:00,
2013-01-18 04:21:00,34.0,27.9,30.44,SSW,203,9.0,-999.0,78,0.00,,,0.00,Wunderground v.1.15,2013-01-18 10:21:00,
2013-01-18 04:26:00,33.3,27.8,30.44,SSW,203,8.0,-999.0,80,0.00,,,0.00,Wunderground v.1.15,2013-01-18 10:26:00,
2013-01-18 04:31:00,33.3,27.8,30.44,SSW,203,8.0,-999.0,80,0.00,,,0.00,Wunderground v.1.15,2013-01-18 10:31:00,
2013-01-18 04:36:00,33.3,27.8,30.44,SSW,203,8.0,-999.0,80,0.00,,,0.00,Wunderground v.1.15,2013-01-18 10:36:00,
2013-01-18 04:41:00,32.9,27.7,30.43,SSW,203,9.0,-999.0,81,0.00,,,0.00,Wunderground v.1.15,2013-01-18 10:41:00,
2013-01-18 04:46:00,32.9,27.7,30.43,SSW,203,9.0,-999.0,81,0.00,,,0.00,Wunderground v.1.15,2013-01-18 10:46:00,
2013-01-18 04:51:00,32.9,27.7,30.43,SSW,203,9.0,-999.0,81,0.00,,,0.00,Wunderground v.1.15,2013-01-18 10:51:00,
2013-01-18 04:56:00,33.2,28.0,30.43,SW,225,11.0,-999.0,81,0.00,,,0.00,Wunderground v.1.15,2013-01-18 10:56:00,
2013-01-18 05:01:00,33.2,28.0,30.43,SW,225,11.0,-999.0,81,0.00,,,0.00,Wunderground v.1.15,2013-01-18 11:01:00,
2013-01-18 05:06:00,33.2,28.0,30.43,SW,225,11.0,-999.0,81,0.00,,,0.00,Wunderground v.1.15,2013-01-18 11:06:00,
2013-01-18 05:11:00,33.4,28.2,30.42,SSW,203,9.0,-999.0,81,0.00,,,0.00,Wunderground v.1.15,2013-01-18 11:11:00,
2013-01-18 05:16:00,33.4,28.2,30.42,SSW,203,9.0,-999.0,81,0.00,,,0.00,Wunderground v.1.15,2013-01-18 11:16:00,
2013-01-18 05:21:00,33.4,28.2,30.42,SSW,203,9.0,-999.0,81,0.00,,,0.00,Wunderground v.1.15,2013-01-18 11:21:00,
2013-01-18 05:26:00,33.3,28.1,30.42,SSW,203,10.0,-999.0,81,0.00,,,0.00,Wunderground v.1.15,2013-01-18 11:26:00,
2013-01-18 05:31:00,33.3,28.1,30.42,SSW,203,10.0,-999.0,81,0.00,,,0.00,Wunderground v.1.15,2013-01-18 11:31:00,
2013-01-18 05:36:00,33.3,28.1,30.42,SSW,203,10.0,-999.0,81,0.00,,,0.00,Wunderground v.1.15,2013-01-18 11:36:00,
2013-01-18 05:41:00,32.6,27.4,30.42,SSW,203,9.0,-999.0,81,0.00,,,0.00,Wunderground v.1.15,2013-01-18 11:41:00,
2013-01-18 05:46:00,32.6,27.4,30.42,SSW,203,9.0,-999.0,81,0.00,,,0.00,Wunderground v.1.15,2013-01-18 11:46:00,
2013-01-18 05:51:00,32.6,27.4,30.42,SSW,203,9.0,-999.0,81,0.00,,,0.00,Wunderground v.1.15,2013-01-18 11:51:00,
2013-01-18 05:56:00,32.1,27.5,30.41,SSW,203,8.0,-999.0,83,0.00,,,0.00,Wunderground v.1.15,2013-01-18 11:56:00,
2013-01-18 06:01:00,32.1,27.5,30.41,SSW,203,8.0,-999.0,83,0.00,,,0.00,Wunderground v.1.15,2013-01-18 12:01:00,
2013-01-18 06:06:00,32.1,27.5,30.41,SSW,203,8.0,-999.0,83,0.00,,,0.00,Wunderground v.1.15,2013-01-18 12:06:00,
2013-01-18 06:11:00,31.7,27.1,30.41,SSW,203,7.0,-999.0,83,0.00,,,0.00,Wunderground v.1.15,2013-01-18 12:11:00,
2013-01-18 06:16:00,31.7,27.1,30.41,SSW,203,7.0,-999.0,83,0.00,,,0.00,Wunderground v.1.15,2013-01-18 12:16:00,
2013-01-18 06:21:00,31.7,27.1,30.41,SSW,203,7.0,-999.0,83,0.00,,,0.00,Wunderground v.1.15,2013-01-18 12:21:00,
2013-01-18 06:26:00,31.7,27.4,30.41,South,180,6.0,-999.0,84,0.00,,,0.00,Wunderground v.1.15,2013-01-18 12:26:00,
2013-01-18 06:31:00,31.7,27.4,30.41,South,180,6.0,-999.0,84,0.00,,,0.00,Wunderground v.1.15,2013-01-18 12:31:00,
2013-01-18 06:36:00,31.7,27.4,30.41,South,180,6.0,-999.0,84,0.00,,,0.00,Wunderground v.1.15,2013-01-18 12:36:00,
2013-01-18 06:41:00,31.5,27.2,30.41,South,180,6.0,-999.0,84,0.00,,,0.00,Wunderground v.1.15,2013-01-18 12:41:00,
2013-01-18 06:46:00,31.5,27.2,30.41,South,180,6.0,-999.0,84,0.00,,,0.00,Wunderground v.1.15,2013-01-18 12:46:00,
2013-01-18 06:51:00,31.5,27.2,30.41,South,180,6.0,-999.0,84,0.00,,,0.00,Wunderground v.1.15,2013-01-18 12:51:00,
2013-01-18 06:56:00,31.2,27.2,30.41,SSW,203,7.0,-999.0,85,0.00,,,0.00,Wunderground v.1.15,2013-01-18 12:56:00,
2013-01-18 07:01:00,31.2,27.2,30.41,SSW,203,7.0,-999.0,85,0.00,,,0.00,Wunderground v.1.15,2013-01-18 13:01:00,
2013-01-18 07:06:00,31.2,27.2,30.41,SSW,203,7.0,-999.0,85,0.00,,,0.00,Wunderground v.1.15,2013-01-18 13:06:00,
2013-01-18 07:11:00,31.2,27.2,30.40,SSW,203,8.0,-999.0,85,0.00,,,0.00,Wunderground v.1.15,2013-01-18 13:11:00,
2013-01-18 07:16:00,31.2,27.2,30.40,SSW,203,8.0,-999.0,85,0.00,,,0.00,Wunderground v.1.15,2013-01-18 13:16:00,
2013-01-18 07:21:00,31.2,27.2,30.40,SSW,203,8.0,-999.0,85,0.00,,,0.00,Wunderground v.1.15,2013-01-18 13:21:00,
2013-01-18 07:26:00,31.5,27.5,30.40,SSW,203,8.0,-999.0,85,0.00,,,0.00,Wunderground v.1.15,2013-01-18 13:26:00,
2013-01-18 07:31:00,31.5,27.5,30.40,SSW,203,8.0,-999.0,85,0.00,,,0.00,Wunderground v.1.15,2013-01-18 13:31:00,
2013-01-18 07:36:00,31.5,27.5,30.40,SSW,203,8.0,-999.0,85,0.00,,,0.00,Wunderground v.1.15,2013-01-18 13:36:00,
2013-01-18 07:41:00,31.2,27.2,30.39,SSW,203,9.0,-999.0,85,0.00,,,0.00,Wunderground v.1.15,2013-01-18 13:41:00,
2013-01-18 07:46:00,31.2,27.2,30.39,SSW,203,9.0,-999.0,85,0.00,,,0.00,Wunderground v.1.15,2013-01-18 13:46:00,
2013-01-18 07:51:00,31.2,27.2,30.39,SSW,203,9.0,-999.0,85,0.00,,,0.00,Wunderground v.1.15,2013-01-18 13:51:00,
2013-01-18 07:56:00,31.4,27.1,30.40,SSW,203,9.0,-999.0,84,0.00,,,0.00,Wunderground v.1.15,2013-01-18 13:56:00,
2013-01-18 08:01:00,31.4,27.1,30.40,SSW,203,9.0,-999.0,84,0.00,,,0.00,Wunderground v.1.15,2013-01-18 14:01:00,
2013-01-18 08:06:00,31.4,27.1,30.40,SSW,203,9.0,-999.0,84,0.00,,,0.00,Wunderground v.1.15,2013-01-18 14:06:00,
2013-01-18 08:11:00,31.6,27.3,30.39,SSW,203,9.0,-999.0,84,0.00,,,0.00,Wunderground v.1.15,2013-01-18 14:11:00,
2013-01-18 08:16:00,31.6,27.3,30.39,SSW,203,9.0,-999.0,84,0.00,,,0.00,Wunderground v.1.15,2013-01-18 14:16:00,
2013-01-18 08:21:00,31.6,27.3,30.39,SSW,203,9.0,-999.0,84,0.00,,,0.00,Wunderground v.1.15,2013-01-18 14:21:00,
2013-01-18 08:26:00,32.2,27.9,30.39,SSW,203,10.0,-999.0,84,0.00,,,0.00,Wunderground v.1.15,2013-01-18 14:26:00,
2013-01-18 08:31:00,32.2,27.9,30.39,SSW,203,10.0,-999.0,84,0.00,,,0.00,Wunderground v.1.15,2013-01-18 14:31:00,
2013-01-18 08:36:00,32.2,27.9,30.39,SSW,203,10.0,-999.0,84,0.00,,,0.00,Wunderground v.1.15,2013-01-18 14:36:00,
2013-01-18 08:41:00,33.3,28.7,30.40,SSW,203,10.0,-999.0,83,0.00,,,0.00,Wunderground v.1.15,2013-01-18 14:41:00,
2013-01-18 08:46:00,33.3,28.7,30.40,SSW,203,10.0,-999.0,83,0.00,,,0.00,Wunderground v.1.15,2013-01-18 14:46:00,
2013-01-18 08:51:00,33.3,28.7,30.40,SSW,203,10.0,-999.0,83,0.00,,,0.00,Wunderground v.1.15,2013-01-18 14:51:00,
2013-01-18 08:56:00,34.3,29.1,30.41,SSW,203,8.0,-999.0,81,0.00,,,0.00,Wunderground v.1.15,2013-01-18 14:56:00,
2013-01-18 09:01:00,34.3,29.1,30.41,SSW,203,8.0,-999.0,81,0.00,,,0.00,Wunderground v.1.15,2013-01-18 15:01:00,
2013-01-18 09:06:00,34.3,29.1,30.41,SSW,203,8.0,-999.0,81,0.00,,,0.00,Wunderground v.1.15,2013-01-18 15:06:00,
2013-01-18 09:11:00,36.1,30.5,30.41,SSW,203,7.0,-999.0,80,0.00,,,0.00,Wunderground v.1.15,2013-01-18 15:11:00,
2013-01-18 09:16:00,36.1,30.5,30.41,SSW,203,7.0,-999.0,80,0.00,,,0.00,Wunderground v.1.15,2013-01-18 15:16:00,
2013-01-18 09:21:00,36.1,30.5,30.41,SSW,203,7.0,-999.0,80,0.00,,,0.00,Wunderground v.1.15,2013-01-18 15:21:00,
2013-01-18 09:26:00,37.6,31.0,30.41,SW,225,11.0,-999.0,77,0.00,,,0.00,Wunderground v.1.15,2013-01-18 15:26:00,
2013-01-18 09:31:00,37.6,31.0,30.41,SW,225,11.0,-999.0,77,0.00,,,0.00,Wunderground v.1.15,2013-01-18 15:31:00,
2013-01-18 09:36:00,37.6,31.0,30.41,SW,225,11.0,-999.0,77,0.00,,,0.00,Wunderground v.1.15,2013-01-18 15:36:00,
2013-01-18 09:41:00,39.1,31.5,30.40,SSW,203,12.0,-999.0,74,0.00,,,0.00,Wunderground v.1.15,2013-01-18 15:41:00,
2013-01-18 09:46:00,39.1,31.5,30.40,SSW,203,12.0,-999.0,74,0.00,,,0.00,Wunderground v.1.15,2013-01-18 15:46:00,
2013-01-18 09:51:00,39.1,31.5,30.40,SSW,203,12.0,-999.0,74,0.00,,,0.00,Wunderground v.1.15,2013-01-18 15:51:00,
2013-01-18 09:56:00,40.8,32.5,30.41,SW,225,13.0,-999.0,72,0.00,,,0.00,Wunderground v.1.15,2013-01-18 15:56:00,
2013-01-18 10:01:00,40.8,32.5,30.41,SW,225,13.0,-999.0,72,0.00,,,0.00,Wunderground v.1.15,2013-01-18 16:01:00,
2013-01-18 10:06:00,40.8,32.5,30.41,SW,225,13.0,-999.0,72,0.00,,,0.00,Wunderground v.1.15,2013-01-18 16:06:00,
2013-01-18 10:11:00,41.9,32.1,30.41,SW,225,14.0,-999.0,68,0.00,,,0.00,Wunderground v.1.15,2013-01-18 16:11:00,
2013-01-18 10:16:00,41.9,32.1,30.41,SW,225,14.0,-999.0,68,0.00,,,0.00,Wunderground v.1.15,2013-01-18 16:16:00,
2013-01-18 10:21:00,41.9,32.1,30.41,SW,225,14.0,-999.0,68,0.00,,,0.00,Wunderground v.1.15,2013-01-18 16:21:00,
2013-01-18 10:26:00,43.3,32.3,30.39,SW,225,15.0,-999.0,65,0.00,,,0.00,Wunderground v.1.15,2013-01-18 16:26:00,
2013-01-18 10:31:00,43.3,32.3,30.39,SW,225,15.0,-999.0,65,0.00,,,0.00,Wunderground v.1.15,2013-01-18 16:31:00,
2013-01-18 10:36:00,43.3,32.3,30.39,SW,225,15.0,-999.0,65,0.00,,,0.00,Wunderground v.1.15,2013-01-18 16:36:00,
2013-01-18 10:41:00,44.4,33.0,30.39,SW,225,17.0,-999.0,64,0.00,,,0.00,Wunderground v.1.15,2013-01-18 16:41:00,
2013-01-18 10:46:00,44.4,33.0,30.39,SW,225,17.0,-999.0,64,0.00,,,0.00,Wunderground v.1.15,2013-01-18 16:46:00,
2013-01-18 10:51:00,44.4,33.0,30.39,SW,225,17.0,-999.0,64,0.00,,,0.00,Wunderground v.1.15,2013-01-18 16:51:00,
2013-01-18 10:56:00,45.6,32.9,30.38,SW,225,18.0,-999.0,61,0.00,,,0.00,Wunderground v.1.15,2013-01-18 16:56:00,
2013-01-18 11:01:00,45.6,32.9,30.38,SW,225,18.0,-999.0,61,0.00,,,0.00,Wunderground v.1.15,2013-01-18 17:01:00,
2013-01-18 11:06:00,45.6,32.9,30.38,SW,225,18.0,-999.0,61,0.00,,,0.00,Wunderground v.1.15,2013-01-18 17:06:00,
2013-01-18 11:11:00,46.7,33.5,30.37,SW,225,17.0,-999.0,60,0.00,,,0.00,Wunderground v.1.15,2013-01-18 17:11:00,
2013-01-18 11:16:00,46.7,33.5,30.37,SW,225,17.0,-999.0,60,0.00,,,0.00,Wunderground v.1.15,2013-01-18 17:16:00,
2013-01-18 11:21:00,46.7,33.5,30.37,SW,225,17.0,-999.0,60,0.00,,,0.00,Wunderground v.1.15,2013-01-18 17:21:00,
2013-01-18 11:26:00,48.0,33.9,30.36,SW,225,17.0,-999.0,58,0.00,,,0.00,Wunderground v.1.15,2013-01-18 17:26:00,
2013-01-18 11:31:00,48.0,33.9,30.36,SW,225,17.0,-999.0,58,0.00,,,0.00,Wunderground v.1.15,2013-01-18 17:31:00,
2013-01-18 11:36:00,48.0,33.9,30.36,SW,225,17.0,-999.0,58,0.00,,,0.00,Wunderground v.1.15,2013-01-18 17:36:00,
2013-01-18 11:41:00,48.5,33.9,30.35,SW,225,18.0,-999.0,57,0.00,,,0.00,Wunderground v.1.15,2013-01-18 17:41:00,
2013-01-18 11:46:00,48.5,33.9,30.35,SW,225,18.0,-999.0,57,0.00,,,0.00,Wunderground v.1.15,2013-01-18 17:46:00,
2013-01-18 11:51:00,48.5,33.9,30.35,SW,225,18.0,-999.0,57,0.00,,,0.00,Wunderground v.1.15,2013-01-18 17:51:00,
2013-01-18 11:56:00,49.6,34.1,30.33,SW,225,21.0,-999.0,55,0.00,,,0.00,Wunderground v.1.15,2013-01-18 17:56:00,
2013-01-18 12:01:00,49.6,34.1,30.33,SW,225,21.0,-999.0,55,0.00,,,0.00,Wunderground v.1.15,2013-01-18 18:01:00,
2013-01-18 12:06:00,49.6,34.1,30.33,SW,225,21.0,-999.0,55,0.00,,,0.00,Wunderground v.1.15,2013-01-18 18:06:00,
2013-01-18 12:11:00,50.9,33.9,30.31,SW,225,21.0,-999.0,52,0.00,,,0.00,Wunderground v.1.15,2013-01-18 18:11:00,
2013-01-18 12:16:00,50.9,33.9,30.31,SW,225,21.0,-999.0,52,0.00,,,0.00,Wunderground v.1.15,2013-01-18 18:16:00,
2013-01-18 12:21:00,50.9,33.9,30.31,SW,225,21.0,-999.0,52,0.00,,,0.00,Wunderground v.1.15,2013-01-18 18:21:00,
2013-01-18 12:26:00,52.7,34.1,30.30,SW,225,20.0,-999.0,49,0.00,,,0.00,Wunderground v.1.15,2013-01-18 18:26:00,
2013-01-18 12:31:00,52.7,34.1,30.30,SW,225,20.0,-999.0,49,0.00,,,0.00,Wunderground v.1.15,2013-01-18 18:31:00,
2013-01-18 12:36:00,52.7,34.1,30.30,SW,225,20.0,-999.0,49,0.00,,,0.00,Wunderground v.1.15,2013-01-18 18:36:00,
2013-01-18 12:41:00,53.5,33.7,30.28,SW,225,23.0,-999.0,47,0.00,,,0.00,Wunderground v.1.15,2013-01-18 18:41:00,
2013-01-18 12:46:00,53.5,33.7,30.28,SW,225,23.0,-999.0,47,0.00,,,0.00,Wunderground v.1.15,2013-01-18 18:46:00,
2013-01-18 12:51:00,53.5,33.7,30.28,SW,225,23.0,-999.0,47,0.00,,,0.00,Wunderground v.1.15,2013-01-18 18:51:00,
2013-01-18 12:56:00,54.1,33.2,30.27,SW,225,21.0,-999.0,45,0.00,,,0.00,Wunderground v.1.15,2013-01-18 18:56:00,
2013-01-18 13:01:00,54.1,33.2,30.27,SW,225,21.0,-999.0,45,0.00,,,0.00,Wunderground v.1.15,2013-01-18 19:01:00,
2013-01-18 13:06:00,54.1,33.2,30.27,SW,225,21.0,-999.0,45,0.00,,,0.00,Wunderground v.1.15,2013-01-18 19:06:00,
2013-01-18 13:11:00,54.4,33.5,30.27,SW,225,20.0,-999.0,45,0.00,,,0.00,Wunderground v.1.15,2013-01-18 19:11:00,
2013-01-18 13:16:00,54.4,33.5,30.27,SW,225,20.0,-999.0,45,0.00,,,0.00,Wunderground v.1.15,2013-01-18 19:16:00,
2013-01-18 13:21:00,54.4,33.5,30.27,SW,225,20.0,-999.0,45,0.00,,,0.00,Wunderground v.1.15,2013-01-18 19:21:00,
2013-01-18 13:26:00,54.9,33.9,30.26,SW,225,21.0,-999.0,45,0.00,,,0.00,Wunderground v.1.15,2013-01-18 19:26:00,
2013-01-18 13:31:00,54.9,33.9,30.26,SW,225,21.0,-999.0,45,0.00,,,0.00,Wunderground v.1.15,2013-01-18 19:31:00,
2013-01-18 13:36:00,54.9,33.9,30.26,SW,225,21.0,-999.0,45,0.00,,,0.00,Wunderground v.1.15,2013-01-18 19:36:00,
2013-01-18 13:41:00,55.7,34.1,30.25,SW,225,20.0,-999.0,44,0.00,,,0.00,Wunderground v.1.15,2013-01-18 19:41:00,
2013-01-18 13:46:00,55.7,34.1,30.25,SW,225,20.0,-999.0,44,0.00,,,0.00,Wunderground v.1.15,2013-01-18 19:46:00,
2013-01-18 13:51:00,55.7,34.1,30.25,SW,225,20.0,-999.0,44,0.00,,,0.00,Wunderground v.1.15,2013-01-18 19:51:00,
2013-01-18 13:56:00,57.0,33.5,30.24,SW,225,18.0,-999.0,41,0.00,,,0.00,Wunderground v.1.15,2013-01-18 19:56:00,
2013-01-18 14:01:00,57.0,33.5,30.24,SW,225,18.0,-999.0,41,0.00,,,0.00,Wunderground v.1.15,2013-01-18 20:01:00,
2013-01-18 14:06:00,57.0,33.5,30.24,SW,225,18.0,-999.0,41,0.00,,,0.00,Wunderground v.1.15,2013-01-18 20:06:00,
2013-01-18 14:11:00,57.9,33.1,30.23,SW,225,20.0,-999.0,39,0.00,,,0.00,Wunderground v.1.15,2013-01-18 20:11:00,
2013-01-18 14:16:00,57.9,33.1,30.23,SW,225,20.0,-999.0,39,0.00,,,0.00,Wunderground v.1.15,2013-01-18 20:16:00,
2013-01-18 14:21:00,57.9,33.1,30.23,SW,225,20.0,-999.0,39,0.00,,,0.00,Wunderground v.1.15,2013-01-18 20:21:00,
2013-01-18 14:26:00,58.2,32.7,30.22,SW,225,21.0,-999.0,38,0.00,,,0.00,Wunderground v.1.15,2013-01-18 20:26:00,
2013-01-18 14:31:00,58.2,32.7,30.22,SW,225,21.0,-999.0,38,0.00,,,0.00,Wunderground v.1.15,2013-01-18 20:31:00,
2013-01-18 14:36:00,58.2,32.7,30.22,SW,225,21.0,-999.0,38,0.00,,,0.00,Wunderground v.1.15,2013-01-18 20:36:00,
2013-01-18 14:41:00,58.8,33.2,30.22,SW,225,19.0,-999.0,38,0.00,,,0.00,Wunderground v.1.15,2013-01-18 20:41:00,
2013-01-18 14:46:00,58.8,33.2,30.22,SW,225,19.0,-999.0,38,0.00,,,0.00,Wunderground v.1.15,2013-01-18 20:46:00,
2013-01-18 14:51:00,58.8,33.2,30.22,SW,225,19.0,-999.0,38,0.00,,,0.00,Wunderground v.1.15,2013-01-18 20:51:00,
2013-01-18 14:56:00,58.9,32.7,30.21,SW,225,20.0,-999.0,37,0.00,,,0.00,Wunderground v.1.15,2013-01-18 20:56:00,
2013-01-18 15:01:00,58.9,32.7,30.21,SW,225,20.0,-999.0,37,0.00,,,0.00,Wunderground v.1.15,2013-01-18 21:01:00,
2013-01-18 15:06:00,58.9,32.7,30.21,SW,225,20.0,-999.0,37,0.00,,,0.00,Wunderground v.1.15,2013-01-18 21:06:00,
2013-01-18 15:11:00,58.9,32.7,30.21,SW,225,20.0,-999.0,37,0.00,,,0.00,Wunderground v.1.15,2013-01-18 21:11:00,
2013-01-18 15:16:00,58.9,32.7,30.21,SW,225,20.0,-999.0,37,0.00,,,0.00,Wunderground v.1.15,2013-01-18 21:16:00,
2013-01-18 15:21:00,58.9,32.7,30.21,SW,225,20.0,-999.0,37,0.00,,,0.00,Wunderground v.1.15,2013-01-18 21:21:00,
2013-01-18 15:26:00,59.1,32.8,30.19,SW,225,19.0,-999.0,37,0.00,,,0.00,Wunderground v.1.15,2013-01-18 21:26:00,
2013-01-18 15:31:00,59.1,32.8,30.19,SW,225,19.0,-999.0,37,0.00,,,0.00,Wunderground v.1.15,2013-01-18 21:31:00,
2013-01-18 15:36:00,59.1,32.8,30.19,SW,225,19.0,-999.0,37,0.00,,,0.00,Wunderground v.1.15,2013-01-18 21:36:00,
2013-01-18 15:41:00,58.8,32.6,30.19,SW,225,21.0,-999.0,37,0.00,,,0.00,Wunderground v.1.15,2013-01-18 21:41:00,
2013-01-18 15:46:00,58.8,32.6,30.19,SW,225,21.0,-999.0,37,0.00,,,0.00,Wunderground v.1.15,2013-01-18 21:46:00,
2013-01-18 15:51:00,58.8,32.6,30.19,SW,225,21.0,-999.0,37,0.00,,,0.00,Wunderground v.1.15,2013-01-18 21:51:00,
2013-01-18 15:56:00,58.6,32.4,30.19,SW,225,22.0,-999.0,37,0.00,,,0.00,Wunderground v.1.15,2013-01-18 21:56:00,
2013-01-18 16:01:00,58.6,32.4,30.19,SW,225,22.0,-999.0,37,0.00,,,0.00,Wunderground v.1.15,2013-01-18 22:01:00,
2013-01-18 16:06:00,58.6,32.4,30.19,SW,225,22.0,-999.0,37,0.00,,,0.00,Wunderground v.1.15,2013-01-18 22:06:00,
2013-01-18 16:11:00,58.7,32.5,30.18,SW,225,18.0,-999.0,37,0.00,,,0.00,Wunderground v.1.15,2013-01-18 22:11:00,
2013-01-18 16:16:00,58.7,32.5,30.18,SW,225,18.0,-999.0,37,0.00,,,0.00,Wunderground v.1.15,2013-01-18 22:16:00,
2013-01-18 16:21:00,58.7,32.5,30.18,SW,225,18.0,-999.0,37,0.00,,,0.00,Wunderground v.1.15,2013-01-18 22:21:00,
2013-01-18 16:26:00,58.4,32.9,30.18,SW,225,19.0,-999.0,38,0.00,,,0.00,Wunderground v.1.15,2013-01-18 22:26:00,
2013-01-18 16:31:00,58.4,32.9,30.18,SW,225,19.0,-999.0,38,0.00,,,0.00,Wunderground v.1.15,2013-01-18 22:31:00,
2013-01-18 16:36:00,58.4,32.9,30.18,SW,225,19.0,-999.0,38,0.00,,,0.00,Wunderground v.1.15,2013-01-18 22:36:00,
2013-01-18 16:41:00,58.1,32.6,30.18,SW,225,16.0,-999.0,38,0.00,,,0.00,Wunderground v.1.15,2013-01-18 22:41:00,
2013-01-18 16:46:00,58.1,32.6,30.18,SW,225,16.0,-999.0,38,0.00,,,0.00,Wunderground v.1.15,2013-01-18 22:46:00,
2013-01-18 16:51:00,58.1,32.6,30.18,SW,225,16.0,-999.0,38,0.00,,,0.00,Wunderground v.1.15,2013-01-18 22:51:00,
2013-01-18 16:56:00,57.6,32.8,30.18,SW,225,17.0,-999.0,39,0.00,,,0.00,Wunderground v.1.15,2013-01-18 22:56:00,
2013-01-18 17:01:00,57.6,32.8,30.18,SW,225,17.0,-999.0,39,0.00,,,0.00,Wunderground v.1.15,2013-01-18 23:01:00,
2013-01-18 17:06:00,57.6,32.8,30.18,SW,225,17.0,-999.0,39,0.00,,,0.00,Wunderground v.1.15,2013-01-18 23:06:00,
2013-01-18 17:11:00,56.8,32.7,30.18,SSW,203,15.0,-999.0,40,0.00,,,0.00,Wunderground v.1.15,2013-01-18 23:11:00,
2013-01-18 17:16:00,56.8,32.7,30.18,SSW,203,15.0,-999.0,40,0.00,,,0.00,Wunderground v.1.15,2013-01-18 23:16:00,
2013-01-18 17:21:00,56.8,32.7,30.18,SSW,203,15.0,-999.0,40,0.00,,,0.00,Wunderground v.1.15,2013-01-18 23:21:00,
2013-01-18 17:26:00,55.7,32.9,30.17,SSW,203,15.0,-999.0,42,0.00,,,0.00,Wunderground v.1.15,2013-01-18 23:26:00,
2013-01-18 17:31:00,55.7,32.9,30.17,SSW,203,15.0,-999.0,42,0.00,,,0.00,Wunderground v.1.15,2013-01-18 23:31:00,
2013-01-18 17:36:00,55.7,32.9,30.17,SSW,203,15.0,-999.0,42,0.00,,,0.00,Wunderground v.1.15,2013-01-18 23:36:00,
2013-01-18 17:41:00,54.2,32.7,30.17,SSW,203,13.0,-999.0,44,0.00,,,0.00,Wunderground v.1.15,2013-01-18 23:41:00,
2013-01-18 17:46:00,54.2,32.7,30.17,SSW,203,13.0,-999.0,44,0.00,,,0.00,Wunderground v.1.15,2013-01-18 23:46:00,
2013-01-18 17:51:00,54.2,32.7,30.17,SSW,203,13.0,-999.0,44,0.00,,,0.00,Wunderground v.1.15,2013-01-18 23:51:00,
2013-01-18 17:56:00,53.4,32.6,30.17,SSW,203,13.0,-999.0,45,0.00,,,0.00,Wunderground v.1.15,2013-01-18 23:56:00,
2013-01-18 18:01:00,53.4,32.6,30.17,SSW,203,13.0,-999.0,45,0.00,,,0.00,Wunderground v.1.15,2013-01-19 00:01:00,
2013-01-18 18:06:00,53.4,32.6,30.17,SSW,203,13.0,-999.0,45,0.00,,,0.00,Wunderground v.1.15,2013-01-19 00:06:00,
2013-01-18 18:11:00,52.5,32.8,30.17,SSW,203,12.0,-999.0,47,0.00,,,0.00,Wunderground v.1.15,2013-01-19 00:11:00,
2013-01-18 18:16:00,52.5,32.8,30.17,SSW,203,12.0,-999.0,47,0.00,,,0.00,Wunderground v.1.15,2013-01-19 00:16:00,
2013-01-18 18:21:00,52.5,32.8,30.17,SSW,203,12.0,-999.0,47,0.00,,,0.00,Wunderground v.1.15,2013-01-19 00:21:00,
2013-01-18 18:26:00,51.5,33.0,30.17,SSW,203,10.0,-999.0,49,0.00,,,0.00,Wunderground v.1.15,2013-01-19 00:26:00,
2013-01-18 18:31:00,51.5,33.0,30.17,SSW,203,10.0,-999.0,49,0.00,,,0.00,Wunderground v.1.15,2013-01-19 00:31:00,
2013-01-18 18:36:00,51.5,33.0,30.17,SSW,203,10.0,-999.0,49,0.00,,,0.00,Wunderground v.1.15,2013-01-19 00:36:00,
2013-01-18 18:41:00,50.7,33.2,30.18,SSW,203,10.0,-999.0,51,0.00,,,0.00,Wunderground v.1.15,2013-01-19 00:41:00,
2013-01-18 18:46:00,50.7,33.2,30.18,SSW,203,10.0,-999.0,51,0.00,,,0.00,Wunderground v.1.15,2013-01-19 00:46:00,
2013-01-18 18:51:00,50.7,33.2,30.18,SSW,203,10.0,-999.0,51,0.00,,,0.00,Wunderground v.1.15,2013-01-19 00:51:00,
2013-01-18 18:56:00,50.4,32.9,30.18,SSW,203,10.0,-999.0,51,0.00,,,0.00,Wunderground v.1.15,2013-01-19 00:56:00,
2013-01-18 19:01:00,50.4,32.9,30.18,SSW,203,10.0,-999.0,51,0.00,,,0.00,Wunderground v.1.15,2013-01-19 01:01:00,
2013-01-18 19:06:00,50.4,32.9,30.18,SSW,203,10.0,-999.0,51,0.00,,,0.00,Wunderground v.1.15,2013-01-19 01:06:00,
2013-01-18 19:11:00,50.0,33.1,30.18,SSW,203,11.0,-999.0,52,0.00,,,0.00,Wunderground v.1.15,2013-01-19 01:11:00,
2013-01-18 19:16:00,50.0,33.1,30.18,SSW,203,11.0,-999.0,52,0.00,,,0.00,Wunderground v.1.15,2013-01-19 01:16:00,
2013-01-18 19:21:00,50.0,33.1,30.18,SSW,203,11.0,-999.0,52,0.00,,,0.00,Wunderground v.1.15,2013-01-19 01:21:00,
2013-01-18 19:26:00,49.2,33.3,30.18,SSW,203,10.0,-999.0,54,0.00,,,0.00,Wunderground v.1.15,2013-01-19 01:26:00,
2013-01-18 19:31:00,49.2,33.3,30.18,SSW,203,10.0,-999.0,54,0.00,,,0.00,Wunderground v.1.15,2013-01-19 01:31:00,
2013-01-18 19:36:00,49.2,33.3,30.18,SSW,203,10.0,-999.0,54,0.00,,,0.00,Wunderground v.1.15,2013-01-19 01:36:00,
2013-01-18 19:41:00,49.1,33.2,30.18,SSW,203,11.0,-999.0,54,0.00,,,0.00,Wunderground v.1.15,2013-01-19 01:41:00,
2013-01-18 19:46:00,49.1,33.2,30.18,SSW,203,11.0,-999.0,54,0.00,,,0.00,Wunderground v.1.15,2013-01-19 01:46:00,
2013-01-18 19:51:00,49.1,33.2,30.18,SSW,203,11.0,-999.0,54,0.00,,,0.00,Wunderground v.1.15,2013-01-19 01:51:00,
2013-01-18 19:56:00,49.2,33.3,30.18,SSW,203,13.0,-999.0,54,0.00,,,0.00,Wunderground v.1.15,2013-01-19 01:56:00,
2013-01-18 20:01:00,49.2,33.3,30.18,SSW,203,13.0,-999.0,54,0.00,,,0.00,Wunderground v.1.15,2013-01-19 02:01:00,
2013-01-18 20:06:00,49.2,33.3,30.18,SSW,203,13.0,-999.0,54,0.00,,,0.00,Wunderground v.1.15,2013-01-19 02:06:00,
2013-01-18 20:11:00,49.3,33.3,30.17,SW,225,15.0,-999.0,54,0.00,,,0.00,Wunderground v.1.15,2013-01-19 02:11:00,
2013-01-18 20:16:00,49.3,33.3,30.17,SW,225,15.0,-999.0,54,0.00,,,0.00,Wunderground v.1.15,2013-01-19 02:16:00,
2013-01-18 20:21:00,49.3,33.3,30.17,SW,225,15.0,-999.0,54,0.00,,,0.00,Wunderground v.1.15,2013-01-19 02:21:00,
2013-01-18 20:26:00,48.9,33.4,30.17,SW,225,15.0,-999.0,55,0.00,,,0.00,Wunderground v.1.15,2013-01-19 02:26:00,
2013-01-18 20:31:00,48.9,33.4,30.17,SW,225,15.0,-999.0,55,0.00,,,0.00,Wunderground v.1.15,2013-01-19 02:31:00,
2013-01-18 20:36:00,48.9,33.4,30.17,SW,225,15.0,-999.0,55,0.00,,,0.00,Wunderground v.1.15,2013-01-19 02:36:00,
2013-01-18 20:41:00,48.0,33.0,30.17,SSW,203,13.0,-999.0,56,0.00,,,0.00,Wunderground v.1.15,2013-01-19 02:41:00,
2013-01-18 20:46:00,48.0,33.0,30.17,SSW,203,13.0,-999.0,56,0.00,,,0.00,Wunderground v.1.15,2013-01-19 02:46:00,
2013-01-18 20:51:00,48.0,33.0,30.17,SSW,203,13.0,-999.0,56,0.00,,,0.00,Wunderground v.1.15,2013-01-19 02:51:00,
2013-01-18 20:56:00,47.2,32.7,30.16,SSW,203,13.0,-999.0,57,0.00,,,0.00,Wunderground v.1.15,2013-01-19 02:56:00,
2013-01-18 21:01:00,47.2,32.7,30.16,SSW,203,13.0,-999.0,57,0.00,,,0.00,Wunderground v.1.15,2013-01-19 03:01:00,
2013-01-18 21:06:00,47.2,32.7,30.16,SSW,203,13.0,-999.0,57,0.00,,,0.00,Wunderground v.1.15,2013-01-19 03:06:00,
2013-01-18 21:11:00,46.8,32.8,30.15,SSW,203,15.0,-999.0,58,0.00,,,0.00,Wunderground v.1.15,2013-01-19 03:11:00,
2013-01-18 21:16:00,46.8,32.8,30.15,SSW,203,15.0,-999.0,58,0.00,,,0.00,Wunderground v.1.15,2013-01-19 03:16:00,
2013-01-18 21:21:00,46.8,32.8,30.15,SSW,203,15.0,-999.0,58,0.00,,,0.00,Wunderground v.1.15,2013-01-19 03:21:00,
2013-01-18 21:26:00,46.5,32.9,30.15,SW,225,17.0,-999.0,59,0.00,,,0.00,Wunderground v.1.15,2013-01-19 03:26:00,
2013-01-18 21:31:00,46.5,32.9,30.15,SW,225,17.0,-999.0,59,0.00,,,0.00,Wunderground v.1.15,2013-01-19 03:31:00,
2013-01-18 21:36:00,46.5,32.9,30.15,SW,225,17.0,-999.0,59,0.00,,,0.00,Wunderground v.1.15,2013-01-19 03:36:00,
2013-01-18 21:41:00,46.4,32.8,30.15,SW,225,16.0,-999.0,59,0.00,,,0.00,Wunderground v.1.15,2013-01-19 03:41:00,
2013-01-18 21:46:00,46.4,32.8,30.15,SW,225,16.0,-999.0,59,0.00,,,0.00,Wunderground v.1.15,2013-01-19 03:46:00,
2013-01-18 21:51:00,46.4,32.8,30.15,SW,225,16.0,-999.0,59,0.00,,,0.00,Wunderground v.1.15,2013-01-19 03:51:00,
2013-01-18 21:56:00,46.2,32.7,30.14,SW,225,17.0,-999.0,59,0.00,,,0.00,Wunderground v.1.15,2013-01-19 03:56:00,
2013-01-18 22:01:00,46.2,32.7,30.14,SW,225,17.0,-999.0,59,0.00,,,0.00,Wunderground v.1.15,2013-01-19 04:01:00,
2013-01-18 22:06:00,46.2,32.7,30.14,SW,225,17.0,-999.0,59,0.00,,,0.00,Wunderground v.1.15,2013-01-19 04:06:00,
2013-01-18 22:11:00,46.0,32.5,30.14,SW,225,17.0,-999.0,59,0.00,,,0.00,Wunderground v.1.15,2013-01-19 04:11:00,
2013-01-18 22:16:00,46.0,32.5,30.14,SW,225,17.0,-999.0,59,0.00,,,0.00,Wunderground v.1.15,2013-01-19 04:16:00,
2013-01-18 22:21:00,46.0,32.5,30.14,SW,225,17.0,-999.0,59,0.00,,,0.00,Wunderground v.1.15,2013-01-19 04:21:00,
2013-01-18 22:26:00,45.5,32.4,30.14,SW,225,16.0,-999.0,60,0.00,,,0.00,Wunderground v.1.15,2013-01-19 04:26:00,
2013-01-18 22:31:00,45.5,32.4,30.14,SW,225,16.0,-999.0,60,0.00,,,0.00,Wunderground v.1.15,2013-01-19 04:31:00,
2013-01-18 22:36:00,45.5,32.4,30.14,SW,225,16.0,-999.0,60,0.00,,,0.00,Wunderground v.1.15,2013-01-19 04:36:00,
2013-01-18 22:41:00,45.0,32.3,30.14,SW,225,14.0,-999.0,61,0.00,,,0.00,Wunderground v.1.15,2013-01-19 04:41:00,
2013-01-18 22:46:00,45.0,32.3,30.14,SW,225,14.0,-999.0,61,0.00,,,0.00,Wunderground v.1.15,2013-01-19 04:46:00,
2013-01-18 22:51:00,45.0,32.3,30.14,SW,225,14.0,-999.0,61,0.00,,,0.00,Wunderground v.1.15,2013-01-19 04:51:00,
2013-01-18 22:56:00,44.5,32.3,30.14,SW,225,13.0,-999.0,62,0.00,,,0.00,Wunderground v.1.15,2013-01-19 04:56:00,
2013-01-18 23:01:00,44.5,32.3,30.14,SW,225,13.0,-999.0,62,0.00,,,0.00,Wunderground v.1.15,2013-01-19 05:01:00,
2013-01-18 23:06:00,44.5,32.3,30.14,SW,225,13.0,-999.0,62,0.00,,,0.00,Wunderground v.1.15,2013-01-19 05:06:00,
2013-01-18 23:11:00,44.3,32.5,30.14,SW,225,14.0,-999.0,63,0.00,,,0.00,Wunderground v.1.15,2013-01-19 05:11:00,
2013-01-18 23:16:00,44.3,32.5,30.14,SW,225,14.0,-999.0,63,0.00,,,0.00,Wunderground v.1.15,2013-01-19 05:16:00,
2013-01-18 23:21:00,44.3,32.5,30.14,SW,225,14.0,-999.0,63,0.00,,,0.00,Wunderground v.1.15,2013-01-19 05:21:00,
2013-01-18 23:26:00,44.0,32.2,30.13,SW,225,13.0,-999.0,63,0.00,,,0.00,Wunderground v.1.15,2013-01-19 05:26:00,
2013-01-18 23:31:00,44.0,32.2,30.13,SW,225,13.0,-999.0,63,0.00,,,0.00,Wunderground v.1.15,2013-01-19 05:31:00,
2013-01-18 23:36:00,44.0,32.2,30.13,SW,225,13.0,-999.0,63,0.00,,,0.00,Wunderground v.1.15,2013-01-19 05:36:00,
2013-01-18 23:41:00,43.7,32.3,30.13,SW,225,12.0,-999.0,64,0.00,,,0.00,Wunderground v.1.15,2013-01-19 05:41:00,
2013-01-18 23:46:00,43.7,32.3,30.13,SW,225,12.0,-999.0,64,0.00,,,0.00,Wunderground v.1.15,2013-01-19 05:46:00,
2013-01-18 23:51:00,43.7,32.3,30.13,SW,225,12.0,-999.0,64,0.00,,,0.00,Wunderground v.1.15,2013-01-19 05:51:00,
2013-01-18 23:56:00,43.4,32.4,30.13,SW,225,11.0,-999.0,65,0.00,,,0.00,Wunderground v.1.15,2013-01-19 05:56:00,